Flag Weather past 2 weeks in Pontiac, Michigan, U.S.A.

Now
45 °F

Overcast.


Feels Like: 45 °F
Forecast: 37 / 49 °F
Wind: No wind

Location: Oakland County International Airport

Current Time: Oct 30, 2014 at 12:11:49 PM

Latest Report: Oct 30, 2014 at 10:53 AM


Visibility: 10 mi

Pressure: 30.14 "Hg

Humidity: 63%

Dew point: 33 °F

Location of PontiacLocation

Historic Weather in Pontiac — Graph

°F

Pontiac temperature yesterday

Maximum temperature yesterday: 50 °F (at 1:53 PM)
Minimum temperature yesterday: 44 °F (at 6:53 AM)
Average temperature yesterday: 46 °F

Past Weeks' High & Low Weather Summary

 TemperatureHumidityPressure
High69 °F (Oct 27, 10:53 PM)96% (Oct 16, 8:53 AM)30.35 "Hg (Oct 16, 8:53 AM)
Low31 °F (Oct 19, 7:53 AM)26% (Oct 25, 5:53 PM)29.49 "Hg (Oct 17, 2:53 PM)
Average49 °F72%29.92 "Hg
* Reported Oct 15 10:53 AM — Oct 30 10:53 AM, Pontiac, Weather by CustomWeather, © 2014

Note: Actual official high and low records may vary slightly from our data, if they occured in-between our weather recording intervals... More about our weather records

Advertising

Pontiac weather history for previous 24 hours

 ConditionsComfort  
Time TempWeatherWind HumidityBarometerVisibility
10:53 AM
Oct 30
45 °FOvercast.No wind63%30.14 "Hg10 mi
9:53 AM42 °FScattered clouds.No wind73%30.14 "Hg10 mi
8:53 AM36 °FPassing clouds.3 mph89%30.14 "Hg10 mi
7:53 AM36 °FPassing clouds.No wind89%30.13 "Hg10 mi
7:00 AM37 °FOvercast.5 mph89%30.11 "Hg10 mi
5:53 AM39 °FOvercast.6 mph82%30.12 "Hg10 mi
4:53 AM40 °FOvercast.6 mph80%30.11 "Hg10 mi
3:53 AM41 °FOvercast.8 mph74%30.11 "Hg10 mi
2:53 AM41 °FOvercast.6 mph74%30.10 "Hg10 mi
1:53 AM41 °FOvercast.8 mph76%30.09 "Hg10 mi
12:53 AM41 °FClear.6 mph74%30.09 "Hg10 mi
11:53 PM
Oct 29
44 °FMostly cloudy.8 mph71%30.08 "Hg10 mi
10:53 PM44 °FOvercast.9 mph71%30.07 "Hg10 mi
9:53 PM44 °FOvercast.10 mph68%30.07 "Hg10 mi
8:53 PM45 °FPassing clouds.13 mph65%30.06 "Hg10 mi
7:53 PM44 °FPartly cloudy.8 mph68%30.05 "Hg10 mi
6:53 PM44 °FPartly sunny.8 mph65%30.03 "Hg10 mi
5:53 PM46 °FPartly sunny.12 mph63%30.01 "Hg10 mi
4:53 PM46 °FBroken clouds.17 mph63%29.99 "Hg10 mi
3:53 PM45 °FOvercast.10 mph68%29.98 "Hg10 mi
2:53 PM47 °FLight rain. Partly sunny.18 mph61%29.96 "Hg10 mi
1:53 PM50 °FPartly sunny.15 mph57%29.95 "Hg10 mi
12:53 PM47 °FMostly cloudy.18 mph64%29.96 "Hg10 mi
Weather by CustomWeather, © 2014

See weather overviewHow to use our weather pages